1486033200.68,39979,8.31,73130.0,-0.71,-33.67,-34.25,0,*6A
1486033201.9,39980,8.31,73128.5,-0.73,-33.73,-34.25,0,*6B
1486033203.16,39981,8.31,73138.3,-0.71,-34.53,-35.13,0,*69
1486033204.38,39982,8.31,73132.3,-0.71,-33.95,-34.59,0,*68
1486033205.63,39983,8.31,73132.5,-0.71,-34.19,-34.71,0,*60
1486033206.84,39984,8.31,73130.8,-0.73,-35.01,-35.59,0,*66
1486033208.09,39985,8.31,73134.8,-0.75,-34.83,-35.59,0,*6A
1486033209.32,39986,8.31,73134.5,-0.73,-34.01,-34.59,0,*64
1486033210.55,39987,8.31,73134.0,-0.73,-34.01,-34.47,0,*6A
1486033211.74,39988,8.31,73136.5,-0.73,-33.83,-34.41,0,*6E
1486033212.96,39989,8.31,73132.8,-0.73,-33.15,-33.73,0,*66
1486033214.18,39990,8.31,73136.3,-0.73,-33.49,-33.83,0,*68
1486033215.45,39991,8.31,73136.5,-0.71,-33.09,-33.61,0,*63
1486033216.65,39992,8.31,73132.0,-0.73,-33.21,-33.83,0,*64
1486033217.9,39993,8.31,73132.5,-0.73,-32.79,-33.49,0,*6F
1486033219.15,39994,8.31,73132.0,-0.69,-33.27,-33.89,0,*65
1486033220.35,39995,8.25,73134.0,-0.69,-34.07,-34.59,0,*6B
1486033221.6,39996,8.31,73134.8,-0.71,-33.83,-34.35,0,*60
1486033222.85,39997,8.31,73128.0,-0.71,-34.19,-34.71,0,*65
1486033224.13,39998,8.31,73132.5,-0.71,-33.49,-34.01,0,*6F
1486033225.37,39999,8.31,73134.0,-0.71,-33.61,-34.07,0,*62
1486033226.63,40000,8.31,73130.5,-0.71,-34.71,-35.07,0,*62
1486033227.88,40001,8.31,73130.0,-0.71,-33.49,-33.95,0,*62
1486033229.1,40002,8.31,73130.8,-0.69,-33.67,-34.19,0,*67
1486033230.36,40003,8.31,73134.3,-0.69,-33.09,-33.43,0,*66
1486033231.61,40004,8.31,73128.0,-0.67,-33.21,-33.73,0,*66
1486033232.83,40005,8.31,73126.5,-0.69,-32.91,-33.49,0,*6A
1486033234.05,40006,8.31,73130.8,-0.67,-33.55,-33.95,0,*6F
1486033235.31,40007,8.31,73132.8,-0.67,-32.91,-33.27,0,*6E
1486033236.56,40008,8.31,73134.0,-0.67,-33.55,-33.89,0,*6C
1486033237.75,40009,8.31,73130.0,-0.61,-33.15,-33.55,0,*6E
1486033238.98,40010,8.31,73130.3,-0.61,-33.49,-33.95,0,*63
1486033240.2,40011,8.31,73132.5,-0.63,-33.67,-34.13,0,*65
1486033241.47,40012,8.31,73126.3,-0.63,-34.47,-34.95,0,*6D
1486033242.72,40013,8.31,73128.8,-0.63,-33.73,-34.07,0,*67
1486033243.96,40014,8.31,73128.5,-0.61,-34.47,-34.95,0,*69
1486033245.24,40015,8.31,73126.3,-0.63,-35.07,-35.53,0,*64
1486033246.48,40016,8.31,73132.3,-0.67,-35.01,-35.47,0,*60
1486033247.74,40017,8.31,73136.8,-0.69,-34.53,-34.95,0,*67
1486033248.98,40018,8.31,73136.8,-0.69,-33.89,-34.19,0,*6C
1486033250.24,40019,8.31,73142.5,-0.67,-34.13,-34.65,0,*6C
1486033251.46,40020,8.31,73140.8,-0.69,-33.83,-34.19,0,*6D
1486033252.74,40021,8.31,73144.3,-0.67,-33.09,-33.43,0,*68
1486033254.01,40022,8.31,73144.8,-0.67,-33.77,-34.19,0,*6A
1486033255.27,40023,8.31,73134.8,-0.67,-34.19,-34.71,0,*6A
1486033256.53,40024,8.31,73128.3,-0.67,-34.71,-35.07,0,*63
1486033257.78,40025,8.31,73134.8,-0.67,-34.13,-34.53,0,*66
1486033259.01,40026,8.31,73132.0,-0.69,-34.35,-34.71,0,*6F
1486033260.28,40027,8.31,73134.0,-0.67,-33.89,-34.19,0,*6E
1486033261.53,40028,8.31,73132.3,-0.67,-33.55,-33.77,0,*6F
1486033262.8,40029,8.31,73134.8,-0.67,-33.89,-34.35,0,*6E
1486033264.05,40030,8.31,73130.5,-0.67,-35.41,-36.01,0,*61
1486033265.31,40031,8.31,73120.3,-0.67,-35.07,-35.59,0,*6C
1486033266.57,40032,8.31,73126.5,-0.67,-34.83,-35.29,0,*65
1486033267.8,40033,8.31,73132.5,-0.69,-36.01,-36.49,0,*67
1486033269.04,40034,8.31,73126.3,-0.69,-35.83,-36.37,0,*60
1486033270.26,40035,8.31,73128.8,-0.69,-35.29,-35.89,0,*67
1486033271.45,40036,8.31,73128.8,-0.69,-35.13,-35.71,0,*6A
1486033272.65,40037,8.31,73132.8,-0.73,-35.13,-35.71,0,*60
1486033273.88,40038,8.31,73128.0,-0.71,-34.71,-35.13,0,*6C
1486033275.11,40039,8.31,73128.3,-0.73,-34.95,-35.59,0,*6B
1486033276.34,40040,8.31,73132.3,-0.73,-35.01,-35.23,0,*64
1486033277.53,40041,8.31,73132.3,-0.73,-34.25,-34.59,0,*6E
1486033278.76,40042,8.31,73130.3,-0.73,-34.31,-34.77,0,*64
1486033279.96,40043,8.31,73128.5,-0.73,-34.25,-34.71,0,*66
1486033281.23,40044,8.31,73130.3,-0.71,-34.01,-34.53,0,*65
1486033282.46,40045,8.31,73132.8,-0.73,-34.01,-34.13,0,*62
1486033283.66,40046,8.31,73128.8,-0.73,-33.83,-34.07,0,*69
1486033284.9,40047,8.31,73134.8,-0.71,-33.61,-33.83,0,*6D
1486033286.13,40048,8.31,73130.8,-0.71,-33.83,-34.07,0,*65
1486033287.38,40049,8.31,73130.0,-0.69,-32.97,-33.27,0,*6C
1486033288.63,40050,8.31,73130.0,-0.69,-32.79,-32.97,0,*6E
1486033289.86,40051,8.31,73128.5,-0.67,-32.91,-33.37,0,*6C
1486033291.13,40052,8.31,73124.8,-0.67,-34.01,-34.31,0,*61
1486033292.39,40053,8.31,73126.8,-0.67,-33.73,-33.95,0,*6B
1486033293.66,40054,8.31,73124.3,-0.67,-33.43,-33.73,0,*67
1486033294.89,40055,8.31,73126.5,-0.61,-32.69,-32.97,0,*62
1486033296.12,40056,8.31,73130.5,-0.61,-32.79,-33.03,0,*6C
1486033297.35,40057,8.31,73132.5,-0.61,-32.97,-33.21,0,*6D
1486033298.63,40058,8.31,73130.5,-0.59,-32.75,-32.79,0,*69
1486033299.89,40059,8.31,73128.3,-0.59,-32.57,-32.75,0,*64
1486033301.18,40060,8.31,73132.0,-0.59,-32.63,-32.75,0,*69
1486033302.43,40061,8.31,73128.8,-0.57,-32.79,-33.09,0,*67
1486033303.64,40062,8.31,73130.0,-0.53,-33.37,-33.55,0,*62
1486033304.89,40063,8.31,73132.8,-0.55,-32.69,-32.85,0,*63
1486033306.12,40064,8.31,73130.8,-0.53,-32.75,-32.91,0,*6A
1486033307.38,40065,8.31,73130.3,-0.51,-33.15,-33.31,0,*65
1486033308.63,40066,8.31,73130.3,-0.51,-32.51,-32.79,0,*6A
1486033309.86,40067,8.31,73130.5,-0.49,-32.97,-33.21,0,*64
1486033311.14,40068,8.31,73132.3,-0.51,-32.63,-32.79,0,*65
1486033312.38,40069,8.31,73130.5,-0.49,-32.69,-32.79,0,*67
1486033313.61,40070,8.31,73126.5,-0.49,-32.45,-32.51,0,*6B
1486033314.84,40071,8.31,73124.8,-0.45,-32.63,-32.91,0,*6E
1486033316.07,40072,8.31,73124.3,-0.45,-33.15,-33.31,0,*66
1486033317.29,40073,8.31,73126.0,-0.45,-32.91,-33.09,0,*61
1486033318.55,40074,8.31,73124.5,-0.43,-32.57,-32.75,0,*60
1486033319.78,40075,8.31,73128.5,-0.43,-32.57,-32.69,0,*6C
1486033321.01,40076,8.31,73128.3,-0.39,-32.51,-32.69,0,*64
1486033322.24,40077,8.31,73128.5,-0.39,-32.13,-32.23,0,*6D
1486033323.46,40078,8.31,73130.3,-0.39,-32.23,-32.35,0,*66
1486033324.68,40079,8.31,73126.0,-0.37,-32.23,-32.29,0,*64
1486033325.91,40080,8.31,73126.5,-0.35,-32.01,-32.23,0,*6A
1486033327.19,40081,8.31,73126.8,-0.35,-31.73,-31.91,0,*67
1486033328.42,40082,8.31,73128.3,-0.31,-31.79,-32.01,0,*60
1486033329.65,40083,8.31,73128.8,-0.31,-32.35,-32.51,0,*6F
1486033330.88,40084,8.31,73130.5,-0.31,-32.39,-32.39,0,*6A
1486033332.08,40085,8.31,73128.0,-0.29,-32.35,-32.51,0,*60
1486033333.3,40086,8.31,73128.8,-0.27,-32.13,-32.13,0,*6F
1486033334.55,40087,8.31,73130.5,-0.27,-31.95,-32.13,0,*63
1486033335.78,40088,8.31,73130.8,-0.27,-32.51,-32.69,0,*6A
1486033337.04,40089,8.31,73128.0,-0.25,-32.45,-32.63,0,*66
1486033338.26,40090,8.31,73128.8,-0.23,-32.57,-32.91,0,*66
1486033339.51,40091,8.31,73124.8,-0.23,-33.09,-33.15,0,*60
1486033340.79,40092,8.31,73126.3,-0.23,-32.75,-32.79,0,*62
1486033342.03,40093,8.31,73128.0,-0.23,-32.23,-32.29,0,*65
1486033343.32,40094,8.31,73124.3,-0.23,-33.09,-33.27,0,*64
1486033344.59,40095,8.31,73128.8,-0.23,-33.27,-33.31,0,*6E
1486033345.84,40096,8.31,73126.8,-0.23,-32.29,-32.39,0,*6B
1486033347.06,40097,8.31,73124.8,-0.21,-32.19,-32.23,0,*60
1486033348.29,40098,8.31,73130.3,-0.17,-32.35,-32.39,0,*6F
1486033349.49,40099,8.31,73128.0,-0.15,-33.03,-33.21,0,*60
1486033350.74,40100,8.31,73130.5,-0.15,-32.97,-32.97,0,*61
1486033351.94,40101,8.31,73130.3,-0.15,-33.15,-33.15,0,*60
1486033353.22,40102,8.31,73130.5,-0.17,-33.27,-33.27,0,*61
1486033354.45,40103,8.31,73132.5,-0.17,-33.67,-33.83,0,*6A
1486033355.67,40104,8.31,73134.0,-0.21,-33.77,-33.95,0,*6E
1486033356.92,40105,8.31,73136.8,-0.15,-34.31,-34.35,0,*60
1486033358.18,40106,8.31,73138.8,-0.17,-34.13,-34.31,0,*65
1486033359.37,40107,8.31,73136.3,-0.21,-34.41,-34.59,0,*68
1486033360.62,40108,8.31,73134.3,-0.21,-34.19,-34.19,0,*6E
1486033361.83,40109,8.31,73140.0,-0.21,-33.95,-34.19,0,*6C
1486033363.05,40110,8.31,73138.8,-0.21,-33.95,-34.01,0,*6D
1486033364.28,40111,8.31,73136.3,-0.21,-33.67,-33.77,0,*67
1486033365.54,40112,8.31,73138.0,-0.17,-33.83,-34.01,0,*6D
1486033366.74,40113,8.31,73140.3,-0.21,-33.83,-33.95,0,*63
1486033367.99,40114,8.31,73138.3,-0.21,-33.31,-33.43,0,*66
1486033369.21,40115,8.31,73136.0,-0.21,-34.01,-33.95,0,*68
1486033370.46,40116,8.31,73132.3,-0.21,-34.01,-34.19,0,*68
1486033371.66,40117,8.31,73134.0,-0.15,-34.13,-34.13,0,*67
1486033372.89,40118,8.31,73134.3,-0.25,-34.19,-34.25,0,*64
1486033374.16,40119,8.31,73130.5,-0.23,-34.01,-34.19,0,*65
1486033375.41,40120,8.31,73130.3,-0.23,-34.01,-34.07,0,*60
1486033376.6,40121,8.31,73128.8,-0.25,-34.41,-34.41,0,*61
1486033377.82,40122,8.31,73124.5,-0.25,-34.19,-34.25,0,*6D
1486033379.07,40123,8.31,73124.3,-0.23,-34.07,-34.19,0,*6A
1486033380.3,40124,8.31,73124.3,-0.23,-34.41,-34.47,0,*64
1486033381.55,40125,8.31,73124.0,-0.23,-34.35,-34.47,0,*66
1486033382.77,40126,8.31,73124.8,-0.25,-34.25,-34.35,0,*67
1486033383.97,40127,8.31,73126.3,-0.25,-34.07,-34.25,0,*67
1486033385.24,40128,8.31,73126.0,-0.23,-34.47,-34.65,0,*6E
1486033386.5,40129,8.31,73124.3,-0.25,-34.65,-34.95,0,*66
1486033387.72,40130,8.31,73120.0,-0.25,-35.13,-35.35,0,*65
1486033388.95,40131,8.31,73118.8,-0.29,-34.89,-35.07,0,*6B
1486033390.18,40132,8.31,73122.3,-0.29,-35.17,-35.35,0,*6F
1486033391.4,40133,8.31,73126.8,-0.29,-34.89,-35.07,0,*69
1486033392.64,40134,8.31,73126.5,-0.29,-34.65,-34.71,0,*6C
1486033393.87,40135,8.31,73124.0,-0.29,-35.01,-35.35,0,*6F
1486033395.07,40136,8.31,73124.0,-0.29,-35.59,-35.59,0,*6B
1486033396.32,40137,8.31,73122.8,-0.31,-36.07,-36.37,0,*60
1486033397.52,40138,8.31,73118.3,-0.33,-35.13,-35.17,0,*6A
1486033398.74,40139,8.31,73114.0,-0.33,-35.53,-35.71,0,*6F
1486033399.97,40140,8.31,73126.3,-0.37,-35.35,-35.59,0,*6F
1486033401.22,40141,8.31,73118.5,-0.35,-35.29,-35.35,0,*6B
1486033402.47,40142,8.31,73120.5,-0.37,-35.23,-35.41,0,*63
1486033403.68,40143,8.31,73122.0,-0.37,-34.47,-34.47,0,*66
1486033404.92,40144,8.31,73124.0,-0.37,-34.59,-34.65,0,*6E
1486033406.14,40145,8.31,73122.0,-0.39,-34.13,-34.25,0,*6B
1486033407.37,40146,8.31,73126.0,-0.37,-33.77,-34.07,0,*63
1486033408.62,40147,8.31,73124.5,-0.35,-34.01,-34.07,0,*66
1486033409.88,40148,8.31,73116.3,-0.37,-34.65,-34.65,0,*6D
1486033411.08,40149,8.31,73126.5,-0.37,-34.25,-34.25,0,*6C
1486033412.29,40150,8.31,73120.8,-0.35,-34.25,-34.25,0,*66
1486033413.51,40151,8.31,73128.5,-0.37,-34.25,-34.31,0,*60
1486033414.74,40152,8.31,73126.8,-0.35,-33.67,-33.55,0,*65
1486033416.02,40153,8.31,73126.8,-0.35,-33.09,-33.09,0,*65
1486033417.3,40154,8.31,73132.3,-0.35,-33.27,-33.31,0,*65
1486033418.57,40155,8.31,73134.0,-0.35,-33.89,-33.89,0,*63
1486033419.79,40156,8.31,73130.0,-0.33,-34.77,-35.01,0,*66
1486033421.0,40157,8.31,73134.0,-0.37,-34.71,-34.71,0,*63
1486033422.27,40158,8.31,73128.5,-0.35,-35.35,-35.53,0,*6E
1486033423.51,40159,8.31,73120.5,-0.37,-35.77,-35.95,0,*61
1486033424.73,40160,8.31,73112.0,-0.37,-35.41,-35.59,0,*6E
1486033425.95,40161,8.31,73108.0,-0.37,-35.53,-35.59,0,*6C
1486033427.21,40162,8.31,73108.3,-0.43,-35.95,-36.01,0,*68
1486033428.43,40163,8.31,73116.8,-0.43,-36.01,-36.07,0,*61
1486033429.69,40164,8.31,73108.5,-0.43,-36.07,-36.25,0,*60
1486033430.93,40165,8.31,73110.8,-0.47,-35.47,-35.65,0,*65
1486033432.18,40166,8.31,73106.5,-0.45,-35.35,-35.65,0,*61
1486033433.44,40167,8.31,73112.5,-0.47,-35.83,-36.01,0,*6E
1486033434.67,40168,8.31,73116.3,-0.47,-35.89,-36.01,0,*6B
1486033435.92,40169,8.31,73116.5,-0.47,-35.89,-36.25,0,*6C
1486033437.16,40170,8.31,73122.5,-0.51,-36.19,-36.55,0,*6E
1486033438.44,40171,8.31,73130.5,-0.51,-35.95,-36.13,0,*6A
1486033439.67,40172,8.31,73116.8,-0.53,-35.77,-36.13,0,*67
1486033440.92,40173,8.31,73122.8,-0.55,-36.25,-36.43,0,*61
1486033442.15,40174,8.31,73126.3,-0.55,-36.43,-36.73,0,*65
1486033443.41,40175,8.31,73120.8,-0.55,-35.95,-36.01,0,*69
1486033444.65,40176,8.31,73124.8,-0.57,-35.35,-35.65,0,*63
1486033445.86,40177,8.31,73126.8,-0.57,-36.07,-36.31,0,*62
1486033447.1,40178,8.31,73124.5,-0.57,-35.53,-35.53,0,*68
1486033448.33,40179,8.31,73130.5,-0.59,-35.13,-35.29,0,*6E
1486033449.59,40180,8.31,73124.3,-0.59,-34.53,-34.71,0,*61
1486033450.83,40181,8.31,73130.3,-0.59,-35.01,-35.47,0,*62
1486033452.08,40182,8.31,73130.5,-0.59,-34.19,-34.41,0,*6E
1486033453.33,40183,8.31,73126.3,-0.59,-34.07,-34.19,0,*6D
1486033454.59,40184,8.31,73122.0,-0.59,-33.83,-34.01,0,*68
1486033455.82,40185,8.31,73118.0,-0.59,-35.29,-35.71,0,*69
1486033457.08,40186,8.31,73120.3,-0.59,-35.17,-35.53,0,*67
1486033458.32,40187,8.31,73122.0,-0.59,-34.77,-35.01,0,*66
1486033459.55,40188,8.31,73130.0,-0.59,-34.59,-34.71,0,*63
1486033460.83,40189,8.31,73128.3,-0.59,-33.77,-34.01,0,*6E
1486033462.07,40190,8.31,73128.8,-0.59,-33.67,-33.67,0,*60
1486033463.27,40191,8.31,73132.0,-0.57,-32.91,-32.91,0,*6F
1486033464.52,40192,8.31,73134.0,-0.57,-33.31,-33.61,0,*69
1486033465.71,40193,8.31,73132.8,-0.57,-32.91,-33.15,0,*60
1486033466.99,40194,8.31,73132.8,-0.55,-32.85,-33.09,0,*6D
1486033468.18,40195,8.38,73138.0,-0.53,-32.91,-33.03,0,*65
1486033469.39,40196,8.31,73136.8,-0.53,-32.57,-32.69,0,*61
1486033470.64,40197,8.31,73136.8,-0.51,-32.97,-33.15,0,*64
1486033471.9,40198,8.31,73136.0,-0.51,-33.49,-33.67,0,*6C
1486033473.13,40199,8.31,73134.3,-0.51,-33.03,-33.21,0,*61
1486033474.37,40200,8.31,73138.3,-0.49,-32.69,-32.79,0,*6A
1486033475.6,40201,8.31,73134.0,-0.49,-33.21,-33.49,0,*64
1486033476.87,40202,8.31,73140.8,-0.47,-33.31,-33.49,0,*68
1486033478.07,40203,8.31,73138.5,-0.45,-32.91,-32.91,0,*64
1486033479.32,40204,8.31,73132.8,-0.45,-33.89,-34.01,0,*64
1486033480.55,40205,8.31,73138.3,-0.45,-33.61,-33.67,0,*64
1486033481.77,40206,8.31,73138.5,-0.45,-33.43,-33.67,0,*67
1486033483.0,40207,8.31,73134.3,-0.45,-33.89,-34.07,0,*61
1486033484.22,40208,8.31,73134.3,-0.45,-33.83,-33.89,0,*65
1486033485.45,40209,8.31,73132.3,-0.45,-34.01,-34.25,0,*68
1486033486.67,40210,8.31,73132.5,-0.45,-34.01,-34.07,0,*60
1486033487.93,40211,8.31,73130.3,-0.45,-33.31,-33.43,0,*62
1486033489.21,40212,8.31,73132.5,-0.43,-33.09,-33.27,0,*6E
1486033490.44,40213,8.31,73132.5,-0.39,-33.03,-33.21,0,*6E
1486033491.69,40214,8.31,73138.0,-0.39,-33.21,-33.31,0,*68
1486033492.95,40215,8.31,73132.8,-0.39,-33.31,-33.37,0,*6E
1486033494.18,40216,8.31,73138.3,-0.39,-34.41,-34.59,0,*62
1486033495.44,40217,8.31,73130.3,-0.39,-34.65,-35.01,0,*69
1486033496.67,40218,8.31,73120.0,-0.43,-34.71,-34.77,0,*6E
1486033497.93,40219,8.31,73122.5,-0.39,-34.83,-35.17,0,*68
1486033499.18,40220,8.31,73118.5,-0.43,-34.77,-35.07,0,*65
1486033500.44,40221,8.31,73122.0,-0.43,-34.71,-35.07,0,*62
1486033501.71,40222,8.31,73120.8,-0.43,-34.19,-34.53,0,*6F
1486033502.97,40223,8.31,73122.3,-0.45,-34.35,-34.53,0,*66
1486033504.22,40224,8.31,73122.3,-0.45,-34.01,-34.19,0,*68
1486033505.44,40225,8.31,73116.8,-0.45,-34.07,-34.35,0,*61
1486033506.7,40226,8.31,73122.0,-0.45,-33.31,-33.43,0,*66
1486033507.95,40227,8.31,73122.3,-0.45,-33.27,-33.31,0,*65
1486033509.2,40228,8.31,73120.8,-0.39,-32.97,-33.15,0,*6D
1486033510.47,40229,8.31,73124.5,-0.39,-33.61,-33.77,0,*60
1486033511.75,40230,8.31,73116.5,-0.43,-33.43,-33.43,0,*62
1486033513.01,40231,8.31,73118.3,-0.39,-33.49,-33.37,0,*67
1486033514.24,40232,8.31,73120.5,-0.37,-32.97,-33.15,0,*68
1486033515.51,40233,8.31,73122.5,-0.35,-33.43,-33.49,0,*6A
1486033516.77,40234,8.31,73118.0,-0.35,-33.43,-33.67,0,*61
1486033518.02,40235,8.31,73122.8,-0.35,-33.49,-33.55,0,*6B
1486033519.3,40236,8.31,73124.5,-0.35,-33.43,-33.49,0,*6F
1486033520.52,40237,8.31,73124.3,-0.35,-33.55,-33.67,0,*65
1486033521.78,40238,8.31,73122.3,-0.35,-33.55,-33.49,0,*66
1486033523.0,40239,8.31,73124.3,-0.31,-33.21,-33.21,0,*6E
1486033524.25,40240,8.31,73124.8,-0.33,-32.97,-32.97,0,*62
1486033525.45,40241,8.31,73128.0,-0.33,-32.57,-32.57,0,*63
1486033526.68,40242,8.31,73130.0,-0.31,-32.23,-32.35,0,*65
1486033527.93,40243,8.38,73132.5,-0.27,-32.85,-33.03,0,*6B
1486033529.16,40244,8.31,73126.0,-0.27,-32.51,-32.51,0,*63
1486033530.39,40245,8.31,73124.5,-0.27,-32.51,-32.51,0,*62
1486033531.64,40246,8.31,73126.0,-0.27,-32.63,-32.69,0,*6B
1486033532.89,40247,8.31,73126.0,-0.25,-32.97,-32.97,0,*62
1486033534.15,40248,8.31,73126.8,-0.25,-33.49,-33.73,0,*64
1486033535.35,40249,8.31,73130.5,-0.25,-33.67,-33.83,0,*66
1486033536.58,40250,8.31,73124.5,-0.23,-33.37,-33.55,0,*66
1486033537.83,40251,8.31,73124.0,-0.23,-33.67,-33.73,0,*66
1486033539.08,40252,8.31,73124.0,-0.23,-33.67,-33.73,0,*65
1486033540.3,40253,8.31,73126.0,-0.23,-33.83,-33.83,0,*61
1486033541.56,40254,8.31,73128.0,-0.23,-34.65,-35.01,0,*65
1486033542.82,40255,8.31,73126.3,-0.23,-34.65,-35.13,0,*67
1486033544.05,40256,8.31,73134.8,-0.25,-34.35,-34.47,0,*67
1486033545.28,40257,8.31,73128.0,-0.23,-33.37,-33.37,0,*65
1486033546.5,40258,8.31,73132.3,-0.23,-33.15,-33.15,0,*6A
1486033547.74,40259,8.31,73136.0,-0.23,-32.91,-32.97,0,*6D
1486033548.96,40260,8.31,73136.8,-0.23,-32.39,-32.57,0,*69
1486033550.2,40261,8.31,73132.3,-0.23,-32.23,-32.29,0,*6A
1486033551.47,40262,8.31,73130.5,-0.17,-32.75,-32.91,0,*6E
1486033552.75,40263,8.31,73134.0,-0.17,-33.43,-33.49,0,*6F
1486033553.94,40264,8.31,73132.0,-0.21,-34.41,-34.59,0,*6E
1486033555.23,40265,8.31,73132.0,-0.17,-34.95,-35.07,0,*69
1486033556.43,40266,8.31,73132.8,-0.21,-34.71,-34.89,0,*62
1486033557.64,40267,8.31,73128.0,-0.21,-34.59,-34.89,0,*69
1486033558.83,40268,8.31,73134.3,-0.21,-34.41,-34.59,0,*62
1486033560.07,40269,8.31,73128.0,-0.21,-33.61,-33.61,0,*6A
1486033561.3,40270,8.31,73128.5,-0.21,-33.83,-34.01,0,*6F
1486033562.53,40271,8.31,73126.8,-0.17,-34.13,-34.13,0,*66
1486033563.78,40272,8.31,73128.5,-0.21,-33.31,-33.31,0,*60
1486033565.05,40273,8.31,73132.3,-0.17,-32.69,-32.75,0,*69
1486033566.28,40274,8.31,73134.3,-0.17,-32.35,-32.39,0,*6F
1486033567.54,40275,8.38,73136.0,-0.13,-31.95,-32.01,0,*68
1486033568.79,40276,8.31,73134.3,-0.13,-33.03,-32.97,0,*69
1486033570.07,40277,8.31,73128.3,-0.13,-33.61,-33.73,0,*67
1486033571.31,40278,8.31,73130.0,-0.11,-33.89,-33.89,0,*69
1486033572.56,40279,8.31,73128.3,-0.11,-34.65,-34.83,0,*60
1486033573.8,40280,8.31,73124.3,-0.15,-34.53,-34.71,0,*6A
1486033575.05,40281,8.31,73124.0,-0.13,-33.77,-33.55,0,*6D
1486033576.27,40282,8.31,73128.5,-0.15,-32.97,-33.03,0,*64
1486033577.5,40283,8.31,73132.0,-0.13,-33.21,-33.15,0,*68
1486033578.79,40284,8.31,73130.5,-0.13,-33.43,-33.43,0,*68
1486033580.04,40285,8.31,73130.0,-0.13,-33.43,-33.37,0,*6A
1486033581.33,40286,8.31,73128.5,-0.09,-32.79,-32.75,0,*5D
1486033582.6,40287,8.31,73132.3,-0.09,-33.09,-32.97,0,*56
1486033583.83,40288,8.31,73134.5,-0.09,-33.37,-33.37,0,*5F
1486033585.08,40289,8.31,73134.8,-0.09,-33.31,-33.21,0,*5F
1486033586.35,40290,8.31,73132.0,-0.09,-33.31,-33.31,0,*56
1486033587.57,40291,8.31,73138.8,-0.07,-33.09,-33.15,0,*54
1486033588.85,40292,8.31,73138.5,-0.05,-32.79,-32.79,0,*58
1486033590.1,40293,8.31,73144.0,-0.05,-32.19,-32.35,0,*57
1486033591.32,40294,8.31,73136.5,-0.03,-32.51,-32.45,0,*5D
1486033592.54,40295,8.31,73136.0,-0.03,-33.09,-33.03,0,*53
1486033593.78,40296,8.31,73136.5,-0.03,-33.77,-33.77,0,*5A
1486033595.06,40297,8.31,73136.8,-0.01,-33.73,-33.73,0,*59
1486033596.3,40298,8.31,73136.0,-0.01,-33.83,-33.89,0,*5C
1486033597.55,40299,8.31,73138.8,-0.01,-32.97,-33.03,0,*5B
1486033598.81,40300,8.31,73138.0,-0.01,-32.97,-32.97,0,*56
1486033600.03,40301,8.31,73136.8,-0.01,-33.03,-33.03,0,*57
1486033601.27,40302,8.31,73138.0,-0.01,-32.97,-32.91,0,*52
1486033602.51,40303,8.31,73138.3,0.05,-32.97,-32.97,0,*7C
1486033603.75,40304,8.31,73134.8,0.01,-32.97,-32.79,0,*7F
1486033604.96,40305,8.31,73138.8,0.01,-32.57,-32.75,0,*7E
1486033606.15,40306,8.31,73136.3,0.05,-32.39,-32.35,0,*75
1486033607.33,40307,8.31,73134.8,0.09,-32.35,-32.35,0,*74
1486033608.52,40308,8.31,73136.0,0.09,-32.13,-32.01,0,*78
1486033609.7,40309,8.31,73136.8,0.09,-31.67,-31.67,0,*7A
1486033610.91,40310,8.31,73138.8,0.11,-32.13,-32.13,0,*4B
1486033612.17,40311,8.31,73134.0,0.11,-32.29,-32.29,0,*4A
1486033613.44,40312,8.31,73136.0,0.13,-31.91,-31.91,0,*4B
1486033614.64,40313,8.31,73138.3,0.15,-32.23,-32.23,0,*4C
1486033615.89,40314,8.31,73138.5,0.15,-32.75,-32.75,0,*4B
1486033617.09,40315,8.31,73138.5,0.15,-32.91,-32.91,0,*4A
1486033618.31,40316,8.31,73132.5,0.17,-32.39,-32.39,0,*4B
1486033619.58,40317,8.31,73134.5,0.17,-33.27,-33.31,0,*4D
1486033620.8,40318,8.31,73134.0,0.19,-33.73,-33.55,0,*4F
1486033622.05,40319,8.31,73130.3,0.17,-34.07,-34.35,0,*45
1486033623.29,40320,8.31,73134.8,0.17,-34.41,-34.53,0,*4D
1486033624.5,40321,8.31,73130.3,0.17,-34.89,-34.89,0,*4F
1486033625.76,40322,8.31,73132.3,0.15,-34.95,-34.95,0,*4E
1486033626.95,40323,8.31,73134.5,0.15,-34.41,-34.59,0,*46
1486033628.17,40324,8.31,73128.5,0.15,-33.67,-33.61,0,*4E
1486033629.39,40325,8.31,73126.3,0.13,-33.21,-33.21,0,*4F
1486033630.65,40326,8.31,73130.8,0.13,-32.13,-32.07,0,*49
1486033631.91,40327,8.31,73126.8,0.17,-31.85,-31.85,0,*49
1486033633.16,40328,8.31,73126.8,0.19,-32.19,-32.19,0,*48
1486033634.38,40329,8.31,73124.8,0.19,-32.13,-32.29,0,*40
1486033635.6,40330,8.31,73128.0,0.21,-31.79,-31.79,0,*4A
1486033636.82,40331,8.31,73128.5,0.21,-32.13,-32.01,0,*48
1486033638.06,40332,8.31,73128.3,0.21,-32.35,-32.29,0,*45
1486033639.27,40333,8.31,73128.5,0.23,-32.23,-32.29,0,*41
1486033640.49,40334,8.31,73132.3,0.23,-32.63,-32.57,0,*4B
1486033641.74,40335,8.38,73132.5,0.23,-32.79,-32.79,0,*4D
1486033642.96,40336,8.31,73128.3,0.27,-32.91,-32.97,0,*4C
1486033644.21,40337,8.31,73130.3,0.27,-32.79,-32.75,0,*47
1486033645.48,40338,8.31,73132.8,0.29,-32.79,-32.63,0,*41
1486033646.73,40339,8.31,73138.8,0.29,-32.91,-32.79,0,*4D
1486033647.95,40340,8.31,73132.5,0.29,-32.39,-32.35,0,*49
1486033649.16,40341,8.31,73124.5,0.29,-33.15,-33.15,0,*44
1486033650.43,40342,8.31,73116.3,0.29,-34.19,-34.19,0,*47
1486033651.64,40343,8.31,73108.5,0.29,-33.15,-33.15,0,*46
1486033652.89,40344,8.31,73106.8,0.31,-33.09,-33.09,0,*48
1486033654.11,40345,8.31,73110.3,0.31,-33.21,-33.27,0,*4F
1486033655.36,40346,8.31,73106.0,0.29,-33.83,-33.89,0,*49
1486033656.58,40347,8.31,73108.0,0.33,-34.71,-34.71,0,*49
1486033657.84,40348,8.31,73106.0,0.29,-35.53,-35.65,0,*48
1486033659.1,40349,8.31,73104.0,0.29,-35.53,-35.65,0,*49
1486033660.34,40350,8.31,73114.5,0.27,-35.35,-35.35,0,*4A
1486033661.59,40351,8.31,73108.3,0.23,-35.23,-35.23,0,*4F
1486033662.81,40352,8.31,73112.5,0.21,-34.71,-34.71,0,*4E
1486033664.03,40353,8.31,73116.5,0.23,-35.17,-35.35,0,*4D
1486033665.28,40354,8.31,73114.5,0.21,-35.77,-35.83,0,*43
1486033666.5,40355,8.31,73114.3,0.19,-35.65,-35.77,0,*41
1486033667.75,40356,8.31,73120.0,0.21,-35.29,-35.23,0,*40
1486033668.99,40357,8.31,73118.8,0.19,-34.53,-34.35,0,*40
1486033670.19,40358,8.31,73120.8,0.19,-34.71,-34.89,0,*48
1486033671.39,40359,8.31,73118.5,0.19,-35.47,-35.59,0,*41
1486033672.6,40360,8.31,73118.0,0.15,-34.71,-34.77,0,*4E
1486033673.82,40361,8.31,73124.3,0.17,-35.17,-35.29,0,*46
1486033675.02,40362,8.31,73130.3,0.15,-34.59,-34.71,0,*40
1486033676.24,40363,8.31,73126.8,0.15,-34.19,-34.25,0,*44
1486033677.48,40364,8.31,73126.8,0.17,-33.83,-33.77,0,*45
1486033678.7,40365,8.31,73128.0,0.15,-34.01,-34.25,0,*4B
1486033679.94,40366,8.31,73126.5,0.17,-34.07,-34.35,0,*4D
1486033681.13,40367,8.38,73136.5,0.15,-34.07,-34.25,0,*4F
1486033682.38,40368,8.31,73134.8,0.17,-35.07,-35.13,0,*47
1486033683.63,40369,8.31,73130.5,0.15,-35.07,-35.07,0,*41
1486033684.83,40370,8.31,73128.5,0.15,-34.77,-34.77,0,*49
1486033686.1,40371,8.38,73138.5,0.17,-35.07,-35.35,0,*4B
1486033687.32,40372,8.31,73134.3,0.15,-35.53,-35.71,0,*4B
1486033688.58,40373,8.31,73132.0,0.13,-35.41,-35.53,0,*4F
1486033689.8,40374,8.31,73132.8,0.11,-34.41,-34.47,0,*4F
1486033691.03,40375,8.31,73130.5,0.13,-34.07,-34.13,0,*4F
1486033692.26,40376,8.31,73126.0,0.13,-33.83,-33.67,0,*43
1486033693.53,40377,8.38,73128.3,0.13,-33.49,-33.49,0,*48
1486033694.78,40378,8.31,73122.0,0.13,-33.89,-33.83,0,*4D
1486033696.02,40379,8.38,73128.8,0.13,-34.25,-34.31,0,*43
1486033697.26,40380,8.31,73124.3,0.15,-34.19,-34.35,0,*48
1486033698.48,40381,8.31,73124.8,0.15,-34.19,-34.25,0,*48
1486033699.66,40382,8.31,73124.3,0.15,-34.25,-34.41,0,*46
1486033700.91,40383,8.31,73124.5,0.15,-34.01,-33.89,0,*42
1486033702.13,40384,8.38,73126.5,0.15,-33.77,-33.83,0,*49
1486033703.38,40385,8.38,73128.0,0.15,-34.19,-34.35,0,*4D
1486033704.62,40386,8.31,73124.3,0.15,-33.89,-33.89,0,*40